Watertown Regional Airport
KATY : now visible

Airfield :











YOU CAN JOIN US ON...

 
LOGIN :

Register | Disclaimer

   EN    FR    IT 

 









Legend :    VFR   Marginal VFR   IFR   Intensive IFR   Very Intensive IFR
Visi :
Ceiling :
>= 8 km
>= 3000ft
5 to 8 km
1000 to 3000 ft
1500m to 5 km
500 to 1000 ft
800 to 1500m
200 to 500 ft
< 800m
< 200 ft
Symbols :   Thunderstorms  Fog  Heavy snow  Heavy precipitations  Wind > 20 kt






- Airport Elevation : 1749 ft
- IATA code : ATY


KATY - Watertown Regional

CURRENT METAR :
  • 260453Z AUTO 14010G19KT 10SM CLR 06/02 A2997 RMK AO2 SLP160 T00610017

EXPIRED METARs :
  • 260353Z AUTO 15012G21KT 10SM CLR 07/02 A2999 RMK AO2 SLP167 T00670017
  • 260253Z AUTO 14012G20KT 10SM CLR 07/02 A2999 RMK AO2 SLP166 T00670017 58001

TAF KATY
Valid from the 26 at 06:00 until the 27 at 06:00 UTC


260528Z 2606/2706 14010G19KT P6SM OVC250
FM261300 15018G32KT P6SM OVC250
FM270300 14015G23KT P6SM OVC015
KZMP FIR / North America



MET'MAP, your aeronautical weather chart ! - Copyright ORBIFLY December 2007 - Disclaimer

ORBIFLY MET'MAP TEAM :

Programming & Development : Alexandra Zaïnal
Concept & original design : Baudouin d'Aumeries
Assistance for programming : Marc-Olivier Méhu
Technical & hardware support : Manuel Goepfert

Contact : metmap@orbifly.com




SOURCES & CREDITS :

   NOAA       Earth
Advisory